Regional Weather Roundup
Issued by NWS Sterling, VA

Home | Current Version | Previous Version | Graphics & Text | Print | Product List | Glossary On
Versions: 1 2 3 4 5 6 7 8 9 10 11 12 13 14 15 16 17 18 19 20 21 22 23 24 25 26 27 28 29 30 31 32 33 34 35 36 37 38 39 40 41 42 43 44 45 46 47 48 49 50
000
ASUS41 KLWX 031210
RWRLWX

REGIONAL WEATHER ROUNDUP
NATIONAL WEATHER SERVICE BALTIMORE MD/WASHINGTON DC
800 AM EDT FRI JUL 03 2015

Note: "FAIR" indicates few or no clouds below 12,000 feet
with no significant weather and/or obstructions to visibility.
 TC=TEMPERATURE CELSIUS

 * =Non NWS site. Station does not report precipitation (e.g. rain,
    snow, etc.), thunder, or fog.

DCZ001-MDZ009-015-VAZ040>042-051-053>054-031300-
WASHINGTON METRO

CITY           SKY/WX    TMP DP  RH WIND       PRES   REMARKS
WASHINGTON NAT CLOUDY    69  65  86 CALM      29.97S FOG
DULLES         CLOUDY    65  63  93 CALM      29.98R FOG
ANDREWS AFB    CLOUDY    66  66 100 CALM      29.96R
FT BELVOIR     CLOUDY    65  64  96 CALM      29.97R
QUANTICO       CLOUDY    67  63  87 W5        29.98R
COLLEGE PARK*  CLOUDY    64  64 100 CALM      29.97R
LEESBURG*      CLOUDY    64  64 100 CALM      29.99R FOG
MANASSAS*      FOG       63  63 100 CALM      29.98R VSB 1/4
GAITHERSBURG*  MOSUNNY   63  61  94 CALM      30.01S

$$

MDZ006>007-011-014-031300-
BALTIMORE METRO

CITY           SKY/WX    TMP DP  RH WIND       PRES   REMARKS
BWI AIRPORT    CLOUDY    67  63  87 CALM      29.96R FOG
MD SCIENCE CTR   N/A     70  62  76 MISG      29.98R
MARTIN STATE   PTSUNNY   66  66 100 CALM      29.98R FOG
ANNAPOLIS      CLOUDY    70  65  84 N3        29.96R HAZE
FORT MEADE*    CLOUDY    63  61  94 CALM      29.99S

$$

MDZ012-015-019>023-031300-
MARYLAND EASTERN SHORE

CITY           SKY/WX    TMP DP  RH WIND       PRES   REMARKS
OCEAN CITY     PTSUNNY   68  66  93 N3        29.96R FOG
SALISBURY      CLOUDY    68  66  93 CALM      29.97R FOG
BAY BRIDGE AP*   N/A     70  68  94 CALM      29.97R FOG
CAMBRIDGE*       N/A     66  64  94 CALM      29.96S
EASTON*        MOSUNNY   68  68 100 CALM      30.00R FOG

$$

MDZ017>025-031300-
SOUTHERN MARYLAND

CITY           SKY/WX    TMP DP  RH WIND       PRES   REMARKS
PATUXENT RIVER CLOUDY    70  67  90 NW3       29.96R
ST INIGOES     PTSUNNY   71  68  90 CALM      29.96R FOG
LEONARDTOWN*   PTSUNNY   68  64  88 CALM      29.98S

$$

MDZ003>005-031300-
NORTH CENTRAL MARYLAND

CITY           SKY/WX    TMP DP  RH WIND       PRES   REMARKS
FREDERICK*     FOG       64  64 100 CALM      30.01R VSB 1/16
HAGERSTOWN APT FOG       65  64  97 CALM      29.99R VSB 1/4
WESTMINSTER*   MOSUNNY   66  64  94 CALM      29.99R FOG

$$

MDZ501>502-031300-
WESTERN MARYLAND

CITY           SKY/WX    TMP DP  RH WIND       PRES   REMARKS
OAKLAND*       MOSUNNY   59 N/A N/A SE6       30.04R
CUMBERLAND*    CLOUDY    61  61 100 CALM      30.04R

$$

VAZ025>031-031300-
SHENANDOAH VALLEY

CITY           SKY/WX    TMP DP  RH WIND       PRES   REMARKS
WINCHESTER*    PTSUNNY   64  63  94 CALM      29.99R FOG
FRONT ROYAL*   CLOUDY    61  61 100 CALM      29.97S VSB 1/2
LURAY*         FOG       63  63 100 CALM      29.99R VSB<1/4
NEW MARKET*    CLOUDY    62  62 100 SW3       29.99R VSB<1/4
STAUNTON*      CLOUDY    65  64  95 CALM      30.02R FOG
WAYNESBORO*    CLOUDY    62  62 100 CALM      30.01R VSB 1/2

$$

WVZ021-048>050-054>055-031300-
EASTERN WEST VIRGINIA PANHANDLE

CITY           SKY/WX    TMP DP  RH WIND       PRES   REMARKS
MARTINSBURG    FOG       64  63  96 CALM      30.00R VSB 1
PETERSBURG*    PTSUNNY   60  57  91 CALM      30.00S FOG

$$

VAZ036>039-050-031300-
CENTRAL FOOTHILLS

CITY           SKY/WX    TMP DP  RH WIND       PRES   REMARKS
CHARLOTTESVILL CLOUDY    66  63  90 S3        29.98R FOG
CULPEPER*      CLOUDY    61  61 100 CALM      29.99R FOG
ORANGE*        CLOUDY    64  63  94 CALM      29.99R FOG
GORDONSVILLE*  FAIR      64  63  94 CALM      29.97S FOG
WARRENTON*     CLOUDY    63  63 100 CALM      29.97R FOG

$$

VAZ055>057-031300-
NORTH AND CENTRAL PIEDMONT

CITY           SKY/WX    TMP DP  RH WIND       PRES   REMARKS
FREDERICKSBRG* CLOUDY    67  67 100 CALM      29.97R
STAFFORD*      CLOUDY    63  62  96 CALM      30.01S FOG

$$

NCZ024-NYZ072-PAZ021-071-VAZ022-071-031300-
OTHER REGIONAL OBSERVATIONS

CITY           SKY/WX    TMP DP  RH WIND       PRES   REMARKS
NEW YORK CITY  SUNNY     68  51  54 VRB7      30.00R
PHILADELPHIA   PTSUNNY   71  58  63 NE7       29.97R
PITTSBURGH     PTSUNNY   61  55  81 E3        29.97F
ROANOKE        CLOUDY    68  66  93 SE9       30.00R FOG
RICHMOND       CLOUDY    72  66  81 CALM      29.97R
RALEIGH        CLOUDY    72  70  93 SE3       29.97S FOG

$$

ANZ530>537-031300-
MARINE OBSERVATIONS

STATION/POSITION TIME  TEMP    WIND        PRES
                       AIR SEA DIR/SP/G
                 (UTC) (F)     (DEG/KT/KT) (MB)
THOMAS PT LIGHT  1100   70 76  350/  5/  5 1014.6R
BALT KEY BRIDGE  1100   69     350/  5/  5 1014.0R
COVE POINT       1100   70     260/  3/  4 1014.9R
LEWISETTA        1100   70 79  270/  3/  4 1014.2R
SOLOMONS ISLAND  1100      79                N/A
PINEY POINT      1148           40/  4/  5   N/A

$$




USA.gov is the U.S. government's official web portal to all federal, state and local government web resources and services.